Location: ?ejeti?ky
(50.4060°N, 14.9016°E)
Time: 23:40:58
(UTC+00:00)

STARLINK-1364 - Visible Passes

Search period start: 01 October 2020 00:00
Search period end: 11 October 2020 00:00
Orbit: 549 x 551 km, 53.0° (Epoch: 01 October)

Date Brightness Start Highest point End Pass type
(mag) Time Alt. Az. Time Alt. Az. Time Alt. Az.
01 Oct 5.4 01:51:49 31° ENE 01:51:49 31° ENE 01:54:04 10° ENE visible
01 Oct 3.9 03:27:29 26° WNW 03:29:40 59° N 03:33:47 10° ENE visible
02 Oct 5.6 01:46:38 27° ENE 01:46:38 27° ENE 01:48:37 10° ENE visible
02 Oct 4.0 03:22:17 28° WNW 03:24:16 59° N 03:28:22 10° E visible
03 Oct 5.8 01:41:22 24° ENE 01:41:22 24° ENE 01:43:06 10° ENE visible
03 Oct 3.9 03:17:01 31° WNW 03:18:47 60° N 03:22:54 10° E visible
04 Oct 6.1 01:36:05 21° ENE 01:36:05 21° ENE 01:37:31 10° ENE visible
04 Oct 3.9 03:11:44 36° WNW 03:13:14 63° N 03:17:22 10° E visible
05 Oct 6.3 01:30:45 18° ENE 01:30:45 18° ENE 01:31:53 10° ENE visible
05 Oct 3.8 03:06:24 43° NW 03:07:37 68° NNE 03:11:45 10° E visible
06 Oct 6.5 01:25:25 15° ENE 01:25:25 15° ENE 01:26:11 10° ENE visible
06 Oct 3.7 03:01:04 54° NW 03:01:54 74° NNE 03:06:03 10° E visible
07 Oct 6.7 01:20:04 12° ENE 01:20:04 12° ENE 01:20:25 10° ENE visible
07 Oct 3.5 02:55:43 71° NW 02:56:07 82° NNE 03:00:16 10° ESE visible
07 Oct 4.5 04:31:43 10° WNW 04:35:26 32° SW 04:39:09 10° SSE visible
08 Oct 3.5 02:50:24 83° SE 02:50:24 83° SE 02:54:24 10° ESE visible
08 Oct 4.8 04:26:03 10° W 04:29:27 26° SW 04:32:55 10° SSE visible
09 Oct 4.0 02:45:07 55° SE 02:45:07 55° SE 02:48:26 10° ESE visible
09 Oct 5.1 04:20:47 13° W 04:23:22 21° SW 04:26:30 10° S visible
10 Oct 4.8 02:39:54 34° SE 02:39:54 34° SE 02:42:22 10° SE visible
10 Oct 5.3 04:15:33 14° WSW 04:17:12 17° SW 04:19:52 10° S visible
